When you browse on this site, cookies collect data to enhance your experience and personalize the content and advertising you see.
Visit our Privacy Policy to learn more. By continuing to use the site, you agree to this use of cookies and data.
  • In Hungary
  • List of Countries
  • For 7 days
  • Water Temperature
  • Weather Map
  • News
  • Weather Widgets
  • user-avatar
    Login

    Hourly Weather Enterprise

    Today, 19 November, Tuesday

    Time Temperature Precipitation Wind Pressure Humidity
    00:00 +8°C° 0 mm 2 mps 749 mmHg 80%
    01:00 +8°C° 0 mm 2 mps 749 mmHg 82%
    02:00 +8°C° 0 mm 2 mps 749 mmHg 84%
    03:00 +7°C° 0 mm 2 mps 750 mmHg 86%
    04:00 +7°C° 0 mm 2 mps 750 mmHg 88%
    05:00 +7°C° 0 mm 2 mps 750 mmHg 89%
    06:00 +6°C° 0 mm 2 mps 751 mmHg 91%
    07:00 +8°C° 0 mm 2 mps 751 mmHg 82%
    08:00 +10°C° 0 mm 2 mps 751 mmHg 73%
    09:00 +13°C° 0 mm 1 mps 752 mmHg 64%
    10:00 +15°C° 0 mm 2 mps 751 mmHg 58%
    11:00 +16°C° 0 mm 2 mps 751 mmHg 52%
    12:00 +18°C° 0 mm 3 mps 751 mmHg 46%
    13:00 +19°C° 0 mm 3 mps 751 mmHg 49%
    14:00 +19°C° 0 mm 3 mps 750 mmHg 51%
    15:00 +19°C° 0 mm 4 mps 750 mmHg 53%
    16:00 +18°C° 0 mm 3 mps 751 mmHg 61%
    17:00 +16°C° 0 mm 3 mps 751 mmHg 69%
    18:00 +14°C° 0 mm 2 mps 752 mmHg 76%
    19:00 +14°C° 0 mm 2 mps 752 mmHg 79%
    20:00 +13°C° 0 mm 2 mps 752 mmHg 82%
    21:00 +13°C° 0 mm 2 mps 753 mmHg 84%
    22:00 +12°C° 0 mm 2 mps 753 mmHg 86%
    23:00 +12°C° 0 mm 2 mps 753 mmHg 88%

    Tomorrow, 20 November, Wednesday

    Time Temperature Precipitation Wind Pressure Humidity
    00:00 +10°C° 0 mm 2 mps 753 mmHg 89%
    01:00 +10°C° 0 mm 2 mps 754 mmHg 90%
    02:00 +9°C° 0 mm 2 mps 754 mmHg 91%
    03:00 +9°C° 0 mm 2 mps 754 mmHg 92%
    04:00 +9°C° 0 mm 2 mps 755 mmHg 91%
    05:00 +8°C° 0 mm 2 mps 755 mmHg 90%
    06:00 +8°C° 0 mm 2 mps 756 mmHg 89%
    07:00 +10°C° 0 mm 2 mps 756 mmHg 79%
    08:00 +13°C° 0 mm 2 mps 757 mmHg 70%
    09:00 +14°C° 0 mm 3 mps 757 mmHg 60%
    10:00 +16°C° 0 mm 2 mps 757 mmHg 54%
    11:00 +18°C° 0 mm 2 mps 757 mmHg 47%
    12:00 +19°C° 0 mm 2 mps 757 mmHg 40%
    13:00 +19°C° 0 mm 2 mps 756 mmHg 41%
    14:00 +19°C° 0 mm 2 mps 756 mmHg 42%
    15:00 +19°C° 0 mm 2 mps 756 mmHg 42%
    16:00 +18°C° 0 mm 1 mps 756 mmHg 48%
    17:00 +15°C° 0 mm 1 mps 756 mmHg 53%
    18:00 +14°C° 0 mm 1 mps 756 mmHg 58%
    19:00 +13°C° 0 mm 1 mps 757 mmHg 60%
    20:00 +13°C° 0 mm 1 mps 757 mmHg 62%
    21:00 +12°C° 0 mm 1 mps 757 mmHg 64%
    22:00 +12°C° 0 mm 1 mps 757 mmHg 65%
    23:00 +11°C° 0 mm 1 mps 757 mmHg 65%

    Day after tomorrow, 21 November, Thursday

    Time Temperature Precipitation Wind Pressure Humidity
    00:00 +10°C° 0 mm 2 mps 757 mmHg 66%
    01:00 +10°C° 0 mm 2 mps 757 mmHg 68%
    02:00 +10°C° 0 mm 2 mps 757 mmHg 70%
    03:00 +9°C° 0 mm 2 mps 757 mmHg 72%
    04:00 +9°C° 0 mm 2 mps 757 mmHg 73%
    05:00 +9°C° 0 mm 2 mps 757 mmHg 73%
    06:00 +8°C° 0 mm 2 mps 757 mmHg 74%
    07:00 +10°C° 0 mm 2 mps 758 mmHg 70%
    08:00 +13°C° 0 mm 2 mps 758 mmHg 65%
    09:00 +14°C° 0 mm 3 mps 758 mmHg 61%
    10:00 +16°C° 0 mm 3 mps 758 mmHg 56%
    11:00 +18°C° 0 mm 2 mps 758 mmHg 51%
    12:00 +19°C° 0 mm 2 mps 757 mmHg 46%
    13:00 +20°C° 0 mm 2 mps 757 mmHg 46%
    14:00 +20°C° 0 mm 2 mps 756 mmHg 46%
    15:00 +21°C° 0 mm 1 mps 756 mmHg 47%
    16:00 +19°C° 0 mm 1 mps 756 mmHg 51%
    17:00 +18°C° 0 mm 1 mps 756 mmHg 54%
    18:00 +15°C° 0 mm 1 mps 756 mmHg 58%
    19:00 +15°C° 0 mm 1 mps 756 mmHg 61%
    20:00 +14°C° 0 mm 1 mps 756 mmHg 63%
    21:00 +14°C° 0 mm 1 mps 756 mmHg 65%
    22:00 +14°C° 0 mm 1 mps 756 mmHg 68%
    23:00 +14°C° 0 mm 1 mps 756 mmHg 70%

    22 November, Friday

    Time Temperature Precipitation Wind Pressure Humidity
    00:00 +14°C° 0 mm 1 mps 755 mmHg 73%
    01:00 +14°C° 0 mm 1 mps 755 mmHg 74%
    02:00 +13°C° 0 mm 2 mps 755 mmHg 74%
    03:00 +13°C° 0 mm 2 mps 755 mmHg 75%
    04:00 +13°C° 0 mm 2 mps 755 mmHg 76%
    05:00 +13°C° 0 mm 2 mps 755 mmHg 77%
    06:00 +13°C° 0 mm 1 mps 755 mmHg 78%
    07:00 +14°C° 0 mm 2 mps 755 mmHg 77%
    08:00 +16°C° 0 mm 3 mps 755 mmHg 75%
    09:00 +17°C° 0 mm 4 mps 755 mmHg 74%
    10:00 +19°C° 0 mm 4 mps 754 mmHg 71%
    11:00 +21°C° 0 mm 4 mps 754 mmHg 68%
    12:00 +22°C° 0 mm 4 mps 753 mmHg 65%
    13:00 +22°C° 0 mm 4 mps 753 mmHg 68%
    14:00 +22°C° 0 mm 3 mps 753 mmHg 70%
    15:00 +21°C° 0 mm 3 mps 752 mmHg 73%
    16:00 +20°C° 0.1 mm 3 mps 752 mmHg 77%
    17:00 +19°C° 0.1 mm 2 mps 752 mmHg 82%
    18:00 +18°C° 0.1 mm 2 mps 752 mmHg 87%
    19:00 +18°C° 0.1 mm 3 mps 752 mmHg 87%
    20:00 +18°C° 0.1 mm 3 mps 752 mmHg 87%
    21:00 +18°C° 0.1 mm 4 mps 752 mmHg 88%
    22:00 +18°C° 0 mm 4 mps 752 mmHg 90%
    23:00 +18°C° 0 mm 4 mps 751 mmHg 92%

    23 November, Saturday

    Time Temperature Precipitation Wind Pressure Humidity
    00:00 +17°C° 0 mm 4 mps 751 mmHg 94%
    01:00 +17°C° 0 mm 3 mps 751 mmHg 95%
    02:00 +18°C° 0 mm 3 mps 751 mmHg 96%
    03:00 +18°C° 0 mm 3 mps 750 mmHg 96%
    04:00 +18°C° 0 mm 3 mps 750 mmHg 96%
    05:00 +18°C° 0 mm 3 mps 750 mmHg 96%
    06:00 +18°C° 0 mm 3 mps 750 mmHg 96%
    07:00 +20°C° 0.1 mm 3 mps 750 mmHg 90%
    08:00 +21°C° 0.1 mm 4 mps 751 mmHg 85%
    09:00 +23°C° 0.1 mm 5 mps 751 mmHg 80%
    10:00 +23°C° 0.5 mm 5 mps 751 mmHg 79%
    11:00 +23°C° 0.5 mm 5 mps 751 mmHg 78%
    12:00 +25°C° 0.5 mm 5 mps 750 mmHg 77%
    13:00 +23°C° 0.1 mm 4 mps 750 mmHg 79%
    14:00 +22°C° 0.1 mm 4 mps 750 mmHg 80%
    15:00 +21°C° 0.1 mm 4 mps 750 mmHg 82%
    16:00 +19°C° 0 mm 4 mps 750 mmHg 83%
    17:00 +18°C° 0 mm 4 mps 750 mmHg 84%
    18:00 +15°C° 0 mm 4 mps 751 mmHg 84%
    19:00 +14°C° 0 mm 4 mps 751 mmHg 86%
    20:00 +13°C° 0 mm 3 mps 751 mmHg 87%
    21:00 +11°C° 0 mm 3 mps 752 mmHg 88%
    22:00 +11°C° 0 mm 3 mps 752 mmHg 89%
    23:00 +10°C° 0 mm 2 mps 752 mmHg 90%

    24 November, Sunday

    Time Temperature Precipitation Wind Pressure Humidity
    00:00 +10°C° 0 mm 2 mps 752 mmHg 91%
    01:00 +9°C° 0 mm 2 mps 752 mmHg 90%
    02:00 +9°C° 0 mm 3 mps 752 mmHg 90%
    03:00 +8°C° 0 mm 3 mps 752 mmHg 89%
    04:00 +8°C° 0 mm 3 mps 752 mmHg 88%
    05:00 +7°C° 0 mm 3 mps 752 mmHg 86%
    06:00 +7°C° 0 mm 3 mps 753 mmHg 85%
    07:00 +8°C° 0 mm 3 mps 753 mmHg 79%
    08:00 +9°C° 0 mm 3 mps 753 mmHg 73%
    09:00 +10°C° 0 mm 3 mps 754 mmHg 66%
    10:00 +12°C° 0 mm 3 mps 753 mmHg 60%
    11:00 +13°C° 0 mm 3 mps 753 mmHg 54%
    12:00 +16°C° 0 mm 3 mps 753 mmHg 47%
    13:00 +16°C° 0 mm 3 mps 752 mmHg 49%
    14:00 +16°C° 0 mm 3 mps 752 mmHg 50%
    15:00 +16°C° 0 mm 3 mps 752 mmHg 51%
    16:00 +14°C° 0 mm 3 mps 752 mmHg 57%
    17:00 +12°C° 0 mm 3 mps 752 mmHg 63%
    18:00 +10°C° 0 mm 2 mps 752 mmHg 69%
    19:00 +10°C° 0 mm 2 mps 753 mmHg 71%
    20:00 +9°C° 0 mm 2 mps 753 mmHg 72%
    21:00 +8°C° 0 mm 2 mps 753 mmHg 74%
    22:00 +8°C° 0 mm 2 mps 753 mmHg 75%
    23:00 +8°C° 0 mm 2 mps 753 mmHg 76%
    Show more